Location: Norton
(51.3000°N, 0.8167°E)
Time: 18:06:46
(UTC+00:00)

Cosmos 2360 Rocket - Pass Details

Date: 03 March 2021
Orbit: 832 x 846 km, 71.0° (Epoch: 13 April)

Event Time Altitude Azimuth Distance (km) Brightness Sun altitude
Rises 20:21:28 0° 230° (SW) 3,384 5.7 -25.4°
Reaches altitude 10° 20:24:00 10° 236° (SW) 2,455 5.0 -25.7°
Maximum altitude 20:29:24 46° 309° (NW) 1,126 3.2 -26.5°
Drops below altitude 10° 20:34:52 10° 23° (NNE) 2,477 4.7 -27.3°
Sets 20:37:27 0° 29° (NNE) 3,417 5.3 -27.6°
